Temperature
14 14 14 14 14 14 14 14 14 14 14 14 13 13 13 13 13 13 13 13 13 13 13 13 13 13 13 13 13 13 12 12 12 12 12 12 12 11 11 11 11 11 11
14 13 13 14 14 13 13 13 13 13 13 13 13 13 13 13 13 13 13 13 13 13 13 13 13 13 12 12 12 12 12 12 12 12 12 11 11 11 11 11 11 11 10
13 13 13 13 13 13 13 13 13 13 13 13 13 12 12 12 12 12 12 12 12 12 12 12 12 12 12 12 12 12 12 12 12 12 11 11 11 11 10 10 10 10 10
13 13 13 12 12 12 12 12 12 12 12 12 12 12 12 12 12 12 12 12 12 12 12 12 12 12 12 12 12 12 12 11 11 11 11 11 11 10 10 10 10 10 10
12 12 12 12 12 12 12 12 12 12 12 12 12 12 12 12 12 12 12 11 11 12 12 11 11 11 11 11 11 11 11 11 11 11 11 10 10 10 10 10 10 10 10
12 12 12 11 11 11 11 11 11 11 11 11 11 11 11 11 11 11 11 11 11 11 11 11 11 11 11 11 11 11 11 11 11 10 10 10 10 10 10 10 9 9 9
11 11 11 11 11 11 10 10 10 10 10 10 10 11 11 11 11 11 11 11 11 11 11 11 11 10 11 11 11 11 11 10 10 10 10 10 10 10 10 9 9 9 9
11 11 10 10 10 10 10 10 10 10 10 10 10 10 10 10 10 10 10 10 10 10 10 10 10 10 10 10 10 10 10 10 10 10 10 10 10 10 9 9 9 9 9
10 10 10 10 10 10 9 9 9 9 9 9 9 9 9 10 10 10 10 10 10 10 10 10 10 10 10 10 10 10 10 10 10 10 10 10 9 9 9 9 9 8 8
9 9 9 9 9 9 9 9 9 8 8 9 9 9 9 9 9 9 9 9 9 9 9 9 9 9 9 9 9 9 9 9 9 9 9 9 9 9 9 9 9 8 8
9 9 9 9 9 9 8 8 8 8 8 8 8 8 8 8 8 8 8 8 8 8 8 8 9 9 9 9 9 9 9 9 9 9 9 9 9 8 8 8 8 8 8
8 8 8 8 8 8 8 8 8 8 8 7 7 7 7 7 7 8 8 8 8 8 8 8 8 8 8 8 8 8 8 8 8 8 8 8 8 8 8 8 8 8 8
8 7 7 7 7 7 7 7 7 7 7 7 7 7 7 7 7 7 7 7 7 7 7 7 7 8 8 8 8 8 8 8 8 8 7 7 7 7 7 7 7 7 7
7 7 6 6 6 6 6 6 6 6 6 6 6 6 6 6 6 6 7 7 7 7 7 7 7 7 7 7 7 7 7 7 7 7 7 7 7 7 7 7 7 7 7
6 6 6 5 5 5 5 5 5 5 5 5 5 5 5 5 5 6 6 6 6 6 6 6 6 6 6 6 6 6 6 6 7 7 7 7 6 6 6 6 6 6 6
5 5 5 5 5 5 5 5 5 5 5 5 5 4 4 4 5 5 5 5 5 5 5 5 5 5 5 5 5 6 6 6 6 6 6 6 6 6 6 5 5 6 6
5 4 4 4 4 4 4 4 4 4 4 4 4 4 4 4 4 5 5 5 5 5 5 5 5 5 5 5 5 5 5 5 5 5 5 5 5 5 5 5 5 5 5
4 4 4 4 4 4 3 3 3 3 3 3 3 4 4 4 4 4 4 4 4 4 4 4 4 4 4 4 4 4 5 5 5 5 5 5 5 5 5 5 5 5 5
4 3 3 3 3 3 3 3 3 3 3 3 3 3 3 3 3 3 3 3 3 3 3 3 4 4 4 4 4 4 4 4 4 4 4 5 5 5 5 4 4 4 4
3 3 3 3 3 2 2 2 2 2 2 2 2 2 2 3 3 3 3 3 3 3 3 3 3 3 3 3 3 3 3 3 4 4 4 4 4 4 4 4 4 4 4
3 2 2 2 2 2 2 2 2 2 2 2 2 2 2 2 2 2 2 2 2 2 2 2 2 2 3 3 3 3 3 3 3 3 3 3 3 4 4 4 4 3 3
2 2 2 2 1 1 1 1 1 1 1 1 1 1 2 1 1 1 1 1 1 1 2 2 2 2 2 2 2 2 2 2 2 2 3 3 3 3 3 3 3 3 3
2 2 1 1 1 1 1 1 1 1 1 1 1 1 1 1 1 1 1 1 1 1 1 1 1 1 2 2 2 2 2 2 2 2 2 2 2 3 2 2 2 2 2
1 1 1 1 1 1 1 0 0 0 0 0 0 0 0 0 0 0 0 1 1 1 1 1 1 1 1 1 1 1 1 2 2 2 2 2 2 2 2 2 2 2 2
1 1 1 1 0 0 0 -0 -0 -0 -0 -0 -0 -0 -0 -0 -0 -0 -0 0 0 0 0 0 0 0 1 1 1 1 1 1 1 1 1 1 1 1 1 1 1 1 1
0 0 0 0 0 -0 -0 -0 -1 -1 -1 -1 -0 -1 -1 -1 -1 -1 -0 -0 -0 -0 -0 -0 -0 0 0 0 0 0 0 1 1 1 1 1 1 1 1 1 1 1 1
Wind_Speed
1 1 1 1 1 2 1 1 1 1 2 2 1 1 0 0 1 1 0 1 1 1 1 1 1 1 0 0 0 0 0 1 2 1 1 1 1 1 2 4 5 5 4
1 1 1 1 1 1 1 0 0 0 1 1 1 1 1 1 1 0 1 1 2 1 1 1 1 1 0 0 0 1 0 1 2 2 1 1 1 2 2 3 3 3 4
1 1 1 1 1 0 0 1 1 1 1 0 1 1 1 1 0 0 1 1 1 1 1 1 2 1 1 0 1 1 1 0 0 1 1 1 1 1 1 1 2 2 3
1 1 1 1 1 0 1 1 1 1 1 1 1 0 0 0 0 1 1 1 1 1 1 1 1 1 1 1 1 1 0 0 0 1 1 1 1 1 1 2 1 1 1
1 1 1 1 1 2 2 2 2 2 2 2 2 2 1 1 1 1 1 2 2 1 1 1 1 0 0 0 0 1 1 1 1 1 1 1 1 1 1 1 1 1 1
1 1 1 1 1 2 2 2 2 2 2 2 2 2 2 1 1 2 1 2 2 1 2 2 2 1 1 1 1 1 2 2 2 2 2 3 2 2 1 1 1 1 1
2 2 2 2 2 2 2 2 2 2 2 2 3 3 2 2 1 1 1 2 2 2 2 2 2 2 2 1 2 2 2 3 4 4 3 4 3 3 2 2 2 1 2
2 3 3 2 1 1 1 1 1 1 1 1 1 2 2 3 3 2 2 2 2 3 3 2 1 0 1 1 2 1 1 2 3 3 4 4 3 3 4 3 3 1 0
3 3 3 2 1 1 1 1 1 1 1 1 1 2 2 2 2 2 2 2 2 3 2 1 0 0 2 2 1 1 1 2 2 1 1 2 3 3 3 2 2 2 1
3 2 2 1 1 1 1 1 1 1 1 1 1 2 2 2 2 2 1 1 2 2 2 1 1 2 3 2 1 1 1 2 1 1 1 1 0 2 3 4 4 3 1
2 2 2 2 2 2 1 1 1 1 2 2 2 2 2 2 2 2 1 1 2 2 2 2 2 2 3 3 2 2 3 2 1 1 1 0 0 0 0 1 2 3 3
3 2 2 2 2 2 2 2 2 2 2 2 2 2 2 2 2 2 1 2 2 2 2 2 2 3 3 4 3 4 3 2 1 1 1 1 1 1 0 0 1 1 2
2 2 2 3 3 2 2 2 2 2 1 2 2 2 3 3 3 4 3 4 4 2 2 3 4 5 3 2 3 3 2 0 1 1 2 2 2 2 0 1 1 1 1
2 2 2 2 2 2 2 2 2 1 1 2 2 2 3 3 3 4 3 3 3 3 3 3 3 3 2 3 3 2 1 1 1 2 1 1 0 1 1 1 1 0 1
2 2 2 1 1 2 2 2 2 2 2 1 2 2 2 3 4 7 5 3 2 2 3 2 1 1 1 2 2 1 1 1 1 1 1 1 1 1 1 1 1 1 1
2 2 1 1 2 2 2 2 3 2 3 3 2 2 3 4 7 8 8 7 6 4 3 2 2 2 2 2 2 2 1 2 1 1 1 2 2 2 1 1 1 1 2
2 2 2 2 1 1 2 1 2 2 2 2 2 3 3 5 7 8 8 7 6 4 1 2 2 2 2 2 1 2 2 2 1 1 1 1 2 2 2 2 2 2 2
2 2 2 1 1 1 1 2 1 1 2 2 2 3 4 5 6 6 7 5 4 2 1 1 2 2 2 2 2 2 2 1 1 1 1 1 1 2 2 2 3 3 3
2 1 1 1 1 1 1 1 1 2 2 2 2 3 5 5 5 5 5 2 2 2 2 2 2 2 2 2 2 2 1 2 2 2 1 1 1 1 2 2 3 4 3
1 2 2 1 1 1 1 1 1 2 2 2 2 2 3 3 3 3 2 2 2 2 2 2 2 2 2 2 2 2 2 2 2 2 2 2 2 2 2 3 3 3 3
1 1 3 2 1 1 1 1 2 2 2 2 2 2 3 2 2 3 3 2 2 2 2 2 2 2 2 2 2 2 2 2 2 2 2 2 2 2 2 2 2 3 2
2 1 1 1 2 2 2 2 2 2 2 2 2 2 4 2 2 2 2 3 3 2 2 2 2 2 2 2 2 2 3 3 3 3 3 3 3 3 2 2 2 2 2
2 2 2 2 2 2 2 2 2 2 2 2 3 2 2 2 2 3 3 3 2 2 3 2 2 2 3 3 3 2 3 3 4 3 3 2 2 2 3 3 3 3 3
2 2 2 2 2 2 2 2 2 2 2 2 2 2 2 2 3 3 3 3 2 2 3 3 3 4 5 5 4 4 4 5 5 4 3 3 3 3 3 3 3 3 3
2 2 2 2 2 2 2 2 2 2 2 3 3 3 3 3 3 3 3 3 3 3 3 4 4 4 5 6 6 6 7 7 6 5 4 3 3 3 3 3 3 3 3
2 2 2 2 2 2 2 2 2 2 2 3 3 3 3 3 3 4 3 3 3 3 4 4 5 6 6 6 7 7 7 7 7 7 5 3 4 3 3 3 4 4 4
Wind_Direction
78 74 108 115 114 117 126 139 159 182 166 148 161 147 121 115 71 67 307 303 256 249 256 223 243 218 271 189 245 262 229 173 205 254 223 166 134 150 139 162 165 164 167
85 74 103 114 111 129 146 112 68 93 129 147 155 152 148 100 76 97 287 297 288 285 277 261 269 243 58 358 245 243 228 224 179 222 246 219 207 192 180 183 165 174 167
82 74 62 80 75 65 105 96 77 20 2 158 176 166 165 179 194 265 266 275 281 300 302 290 281 224 199 247 257 237 229 243 172 192 232 223 234 218 185 180 151 151 169
95 91 57 37 28 35 64 85 82 27 357 357 6 116 127 110 51 26 355 325 331 332 320 317 326 310 247 219 221 247 241 186 198 184 214 228 234 220 156 169 176 200 205
113 95 47 38 23 23 50 61 55 29 8 2 4 21 39 45 34 19 334 302 299 303 310 290 275 301 321 257 189 219 216 218 206 195 207 240 204 161 195 185 183 209 253
102 99 82 60 50 43 36 60 54 27 13 8 3 11 10 23 23 35 1 302 291 284 285 285 273 256 279 303 235 226 209 211 220 215 212 209 214 211 204 188 176 173 265
58 64 70 59 46 31 18 36 45 24 29 24 7 359 351 335 329 339 336 309 297 291 278 274 294 317 2 313 276 265 267 246 229 217 218 218 207 204 187 194 210 217 233
45 52 56 59 56 40 13 354 3 28 32 9 354 341 334 337 348 353 332 308 293 291 286 270 254 280 318 356 294 270 275 283 261 233 214 222 210 190 189 194 202 197 235
35 47 41 32 33 37 17 340 5 28 359 333 335 320 306 314 333 332 351 312 308 303 308 322 303 267 358 27 336 267 274 304 317 324 201 220 218 207 184 146 143 148 257
31 44 40 25 26 26 0 345 6 358 328 330 307 292 297 307 318 314 318 303 298 308 310 320 8 349 348 11 310 255 244 280 309 332 349 338 253 200 190 172 174 180 198
29 39 36 30 31 27 15 22 16 349 328 328 329 325 316 306 306 305 303 278 294 306 317 323 323 339 333 324 313 256 261 266 238 199 180 166 38 79 169 170 173 180 194
36 41 43 35 24 18 27 23 17 5 348 321 317 327 334 338 4 352 313 288 311 296 303 313 305 317 321 312 295 297 307 330 222 185 167 186 186 210 246 247 215 211 205
38 32 36 40 35 30 32 35 31 28 12 333 334 337 334 347 360 357 341 315 311 297 299 312 320 313 307 300 291 304 321 333 229 204 197 212 212 197 150 37 12 27 25
38 32 28 34 35 31 24 29 33 25 8 338 337 339 337 347 355 356 339 326 320 316 323 329 338 339 327 320 323 304 278 264 234 227 216 205 149 133 156 169 185 150 357
27 28 20 22 34 34 30 31 42 46 44 4 348 344 337 332 338 346 343 320 307 300 315 313 306 323 321 320 318 306 303 297 278 263 203 188 197 207 210 171 179 197 217
11 10 14 28 33 26 21 19 31 34 36 34 34 4 346 347 344 343 342 338 329 320 321 303 299 296 282 281 283 291 301 292 269 237 215 200 197 204 212 226 224 203 221
13 9 16 22 27 13 2 0 358 8 23 19 16 1 341 336 340 339 332 328 326 324 296 281 288 289 288 290 286 285 280 286 284 264 238 217 198 201 197 216 230 239 248
11 9 14 15 13 2 344 337 333 338 342 345 352 349 339 332 333 333 331 337 339 337 298 287 295 296 297 299 290 282 289 311 323 315 293 268 238 221 219 223 229 238 245
18 19 23 15 354 332 321 329 334 344 350 347 346 340 333 328 328 328 333 338 319 317 309 300 298 295 299 293 290 299 301 297 302 301 292 285 270 249 245 246 245 242 239
21 10 10 8 341 332 346 350 342 340 340 338 341 347 343 338 337 329 328 322 317 314 314 308 301 297 296 293 298 308 311 297 286 277 278 276 272 264 253 249 250 248 248
12 351 346 340 328 341 350 346 341 338 333 324 327 342 347 335 326 333 338 333 325 316 315 316 316 312 301 303 309 307 306 299 282 273 272 272 275 275 273 267 261 258 256
359 340 329 327 337 341 336 341 339 331 324 328 338 343 344 343 332 335 334 332 331 324 319 317 309 301 300 302 303 303 300 297 289 275 268 267 268 274 278 276 274 263 252
352 338 335 338 337 323 327 335 332 333 335 341 341 342 338 329 329 325 322 324 327 331 337 332 324 322 325 328 320 301 295 295 296 292 282 282 278 270 268 268 265 259 254
340 333 332 333 334 331 332 337 338 339 336 334 333 330 327 326 322 318 316 313 313 318 330 334 331 326 323 327 330 330 326 325 325 315 293 280 281 278 269 264 263 262 259
338 332 329 327 330 330 331 334 335 336 334 329 327 327 325 324 324 321 316 309 307 306 315 321 319 317 318 321 323 323 323 325 323 318 310 288 276 273 269 265 265 267 266
321 324 323 325 329 327 327 328 330 332 328 327 325 321 318 317 317 316 313 311 308 306 312 321 322 323 322 319 317 317 321 323 322 315 313 294 272 266 266 262 265 259 256
Height
1512 1513 1513 1514 1515 1515 1515 1516 1517 1518 1519 1519 1520 1520 1520 1521 1522 1522 1523 1523 1523 1524 1524 1525 1525 1525 1525 1525 1525 1525 1525 1525 1524 1524 1525 1524 1524 1523 1523 1522 1522 1522 1521
1511 1511 1512 1512 1513 1513 1514 1514 1515 1516 1517 1517 1518 1518 1519 1519 1519 1520 1520 1521 1521 1522 1522 1522 1522 1523 1523 1523 1522 1522 1522 1522 1522 1522 1522 1522 1521 1521 1521 1521 1520 1520 1520
1510 1510 1511 1511 1511 1512 1512 1512 1513 1514 1515 1515 1516 1516 1517 1517 1517 1517 1518 1518 1519 1519 1519 1520 1520 1520 1519 1520 1520 1520 1520 1520 1520 1519 1519 1519 1519 1519 1519 1519 1519 1518 1518
1508 1509 1509 1510 1510 1510 1511 1511 1511 1512 1513 1513 1514 1514 1514 1515 1515 1515 1516 1516 1516 1516 1516 1517 1517 1517 1516 1517 1517 1517 1517 1517 1517 1516 1516 1516 1516 1516 1517 1516 1516 1516 1516
1507 1507 1507 1508 1508 1508 1509 1509 1510 1510 1510 1511 1511 1512 1512 1512 1512 1513 1513 1513 1514 1513 1514 1514 1514 1514 1514 1514 1514 1513 1513 1513 1513 1513 1513 1513 1513 1514 1514 1514 1514 1514 1514
1505 1506 1506 1506 1506 1506 1507 1507 1507 1508 1508 1508 1508 1509 1509 1509 1510 1510 1510 1510 1511 1511 1510 1511 1511 1511 1511 1511 1511 1511 1511 1510 1510 1510 1510 1510 1510 1511 1511 1511 1511 1511 1511
1504 1504 1504 1504 1504 1505 1505 1505 1506 1506 1506 1506 1506 1506 1506 1507 1507 1507 1507 1507 1507 1507 1507 1507 1507 1507 1507 1507 1507 1508 1507 1507 1507 1507 1507 1507 1507 1507 1508 1508 1508 1508 1509
1502 1502 1502 1502 1503 1503 1503 1504 1504 1504 1503 1503 1503 1504 1504 1504 1504 1504 1504 1504 1504 1504 1504 1504 1504 1503 1504 1504 1503 1503 1503 1503 1503 1503 1503 1504 1505 1505 1505 1506 1506 1506 1506
1500 1500 1500 1501 1501 1501 1501 1501 1502 1502 1502 1502 1501 1501 1501 1501 1501 1501 1501 1501 1500 1501 1501 1500 1500 1500 1500 1500 1500 1499 1499 1499 1499 1500 1500 1501 1501 1502 1502 1502 1503 1503 1503
1498 1498 1498 1499 1499 1499 1499 1499 1500 1500 1500 1499 1499 1499 1499 1498 1498 1498 1498 1497 1497 1497 1497 1497 1497 1497 1497 1497 1496 1496 1495 1495 1495 1496 1496 1496 1497 1498 1499 1499 1499 1500 1499
1497 1497 1497 1497 1497 1497 1497 1497 1497 1497 1497 1497 1497 1497 1496 1496 1496 1495 1495 1494 1494 1494 1493 1493 1493 1493 1493 1493 1493 1492 1492 1492 1492 1492 1492 1493 1493 1494 1495 1495 1496 1496 1497
1495 1495 1495 1495 1495 1495 1494 1494 1495 1495 1495 1494 1494 1494 1494 1494 1493 1492 1492 1492 1491 1491 1490 1490 1490 1490 1490 1489 1489 1489 1489 1489 1488 1488 1488 1489 1489 1490 1491 1492 1492 1493 1493
1493 1493 1493 1493 1492 1492 1492 1491 1492 1492 1492 1492 1492 1491 1491 1491 1490 1490 1489 1489 1488 1488 1487 1487 1487 1486 1486 1486 1486 1485 1485 1485 1485 1484 1485 1485 1486 1487 1487 1488 1488 1489 1489
1490 1490 1490 1490 1490 1490 1490 1489 1490 1490 1490 1490 1489 1489 1488 1488 1487 1486 1485 1485 1485 1485 1484 1484 1483 1483 1483 1482 1482 1481 1481 1481 1481 1481 1481 1482 1483 1483 1483 1484 1484 1485 1485
1489 1489 1489 1488 1488 1488 1488 1488 1488 1488 1488 1488 1487 1487 1486 1485 1484 1484 1483 1482 1481 1481 1481 1480 1480 1479 1479 1478 1478 1478 1478 1477 1477 1478 1478 1478 1479 1480 1480 1480 1481 1481 1481
1487 1487 1487 1487 1486 1486 1486 1486 1486 1486 1486 1486 1485 1485 1484 1483 1482 1481 1480 1479 1479 1479 1478 1477 1476 1476 1476 1476 1475 1475 1475 1474 1474 1474 1474 1475 1475 1476 1476 1477 1478 1477 1477
1486 1486 1485 1485 1485 1485 1485 1485 1484 1484 1484 1483 1483 1482 1481 1480 1479 1478 1477 1476 1476 1475 1475 1474 1473 1473 1473 1473 1473 1472 1472 1472 1472 1471 1471 1471 1472 1472 1473 1473 1474 1474 1474
1485 1484 1484 1484 1484 1483 1483 1483 1483 1482 1481 1480 1480 1479 1478 1477 1476 1475 1474 1473 1472 1472 1471 1471 1471 1471 1470 1470 1469 1469 1469 1468 1468 1468 1468 1468 1469 1469 1469 1469 1470 1470 1470
1483 1483 1483 1482 1482 1481 1481 1481 1480 1480 1479 1478 1477 1476 1475 1474 1474 1473 1471 1470 1469 1469 1469 1468 1468 1468 1467 1467 1466 1466 1466 1466 1465 1465 1465 1465 1465 1465 1465 1465 1466 1466 1466
1482 1482 1481 1480 1480 1479 1479 1479 1478 1477 1477 1476 1475 1474 1473 1472 1470 1469 1469 1468 1467 1466 1466 1465 1465 1465 1464 1464 1463 1463 1462 1462 1462 1462 1462 1462 1461 1461 1461 1461 1461 1461 1462
1480 1480 1480 1479 1478 1478 1477 1477 1476 1475 1475 1474 1473 1472 1471 1470 1468 1467 1467 1466 1465 1464 1463 1462 1462 1461 1461 1461 1460 1459 1459 1458 1458 1458 1458 1458 1458 1457 1457 1457 1457 1457 1457
1479 1478 1478 1477 1477 1476 1475 1475 1474 1473 1472 1472 1471 1470 1469 1468 1466 1465 1464 1463 1462 1461 1461 1460 1459 1458 1458 1457 1457 1456 1455 1455 1454 1454 1454 1453 1453 1453 1453 1453 1452 1452 1452
1477 1476 1476 1475 1475 1474 1473 1473 1472 1471 1470 1469 1468 1467 1466 1465 1464 1463 1462 1461 1459 1459 1458 1457 1456 1455 1454 1454 1453 1452 1452 1451 1451 1450 1449 1449 1448 1448 1448 1447 1447 1447 1447
1475 1474 1473 1473 1472 1472 1471 1470 1469 1469 1468 1467 1466 1465 1464 1463 1462 1460 1459 1458 1457 1456 1455 1454 1453 1452 1451 1450 1449 1449 1448 1447 1447 1446 1445 1444 1444 1443 1443 1443 1442 1442 1442
1473 1472 1472 1471 1470 1470 1469 1468 1467 1466 1465 1464 1463 1462 1461 1460 1459 1457 1456 1455 1454 1453 1452 1451 1450 1449 1447 1446 1445 1444 1444 1443 1442 1441 1441 1440 1439 1439 1438 1438 1438 1438 1437
1471 1471 1470 1469 1468 1468 1467 1466 1465 1464 1463 1462 1461 1459 1458 1457 1456 1454 1453 1452 1451 1449 1448 1447 1446 1445 1443 1442 1441 1440 1439 1438 1437 1437 1436 1435 1434 1434 1434 1433 1433 1432 1432